Regional Weather Roundup
Issued by NWS

Home | Current Version | Previous Version | Text Only | Print | Product List | Glossary On
Versions: 1 2 3 4 5 6 7 8 9 10 11 12 13 14 15 16 17 18 19 20 21 22 23 24 25 26 27 28 29 30 31 32 33 34 35 36 37 38 39 40 41 42 43 44 45 46 47 48 49 50
000
ASHW40 PHFO 101012
RWRHI

WEATHER ROUNDUP FOR HAWAII
NATIONAL WEATHER SERVICE HONOLULU HI
1200 AM HST SAT DEC 10 2016

THIS IS AN AUTOMATED REPORT THAT HAS NOT BEEN QUALITY CONTROLLED.

NOTE..."FAIR" INDICATES FEW OR NO CLOUDS BELOW 12,000 FEET WITH NO
SIGNIFICANT WEATHER AND/OR OBSTRUCTIONS TO VISIBILITY.

* - THESE SITES REPORT LIMITED FIELDS

HIZ001>004-101100-
KAUAI-NIIHAU-

CITY           SKY/WX    TMP DP  RH WIND       PRES   REMARKS
LIHUE APT      CLOUDY    71  67  87 CALM      29.97F
PORT ALLEN*      N/A     70 N/A N/A N6          N/A
POIPU*           N/A     70 N/A N/A N1          N/A
PRINCEVILLE*   NOT AVBL
KOKOLE POINT*  NOT AVBL
MOLOAA DAIRY*    N/A     70  66  88 CALM        N/A
WAIMEA HTS*    NOT AVBL
PUU OPAE*      NOT AVBL
PUU LUA*       NOT AVBL
MAKAHA RIDGE*  NOT AVBL
$$

HIZ005>011-101100-
OAHU-

CITY           SKY/WX    TMP DP  RH WIND       PRES   REMARKS
HONOLULU       CLOUDY    72  68  87 NW5       29.97F
KALAELOA       CLOUDY    71  67  87 NE5       29.99F
KANEOHE MCB    MOCLDY    74  70  87 CALM      29.94F
WHEELER FIELD  FAIR      68  67  99 CALM      29.99F
BELLOWS*       NOT AVBL
KAHUKU*        NOT AVBL
WHEELER*       NOT AVBL
WAIANAE HARBOR NOT AVBL
DILLINGHAM*      N/A     66  63  88 MISG        N/A
KAHUKU TRN*      N/A     79  73  83 N2          N/A
KAWAILOA*        N/A     68  63  83 E5          N/A
KII*             N/A     72  72 100 S3          N/A
MAKUA RANGE*     N/A     70  64  83 N3          N/A
OAHU FOREST NW NOT AVBL
SCHOFIELD BRK*   N/A     66  66 100 NW1         N/A
SCHOFIELD S*   NOT AVBL
WAIANAE VLY*   NOT AVBL
KUAOKALA*      NOT AVBL
HONOULIUULI*   NOT AVBL
MOKUOLOE IS*   NOT AVBL
PALEHUA*       NOT AVBL
WAIAWA PHB*    NOT AVBL
$$

HIZ012>013-101100-
MOLOKAI-

CITY           SKY/WX    TMP DP  RH WIND       PRES   REMARKS
MOLOKAI AIRPT  CLOUDY    72  68  87 CALM      29.99F
KALAUPAPA      NOT AVBL
MAKAPULAPAI*   NOT AVBL
MOLOKAI 1*     NOT AVBL
PUU ALII*      NOT AVBL
$$

HIZ016-101100-
KAHOOLAWE-

CITY           SKY/WX    TMP DP  RH WIND       PRES   REMARKS
KAHOOLAWE*     NOT AVBL
HAKIOAWA*      NOT AVBL
HONOKANAIA*      N/A     75  69  82 NE5       29.92F
KANELOA*         N/A     72  66  83 NE3       30.06S
KEALIALALO*    NOT AVBL
LUA MAKIKA*    NOT AVBL
$$

HIZ014>015-101100-
LANAI-

CITY           SKY/WX    TMP DP  RH WIND       PRES   REMARKS
LANAI CITY     FAIR      67  66  97 E5        30.03F
LANAI 1*       NOT AVBL
$$

HIZ017>028-101100-
MAUI-

CITY           SKY/WX    TMP DP  RH WIND       PRES   REMARKS
KAHULUI        CLOUDY    73  64  73 SW3       29.98F
KAPALUA-W MAUI NOT AVBL
HANA AIRPORT     N/A     68  66  94 SE5       30.00F
HANA*            N/A     70 N/A N/A S2          N/A
HALEAKALA SUMM   N/A     43  43 100 S5G26       N/A
MAALAEA BAY*   NOT AVBL
HALEAKALA*     NOT AVBL
KAUPO GAP*     NOT AVBL
KULA 1*          N/A     57  49  74 SE12G17     N/A
$$

HIZ023>026-101100-
BIG ISLAND OF HAWAII COAST AND LOWER SLOPES-

CITY           SKY/WX    TMP DP  RH WIND       PRES   REMARKS
KAILUA KONA    CLOUDY    74  66  76 NE8       29.96S
HILO           CLOUDY    73  70  90 CALM      30.00S
HONOKAA*         N/A     66 N/A N/A VRB1        N/A
KAWAIHAE MWT*    N/A     73 N/A N/A E3          N/A
KAWAIHAE*      NOT AVBL
SOUTH POINT*     N/A     70 N/A N/A NW8         N/A
UPOLU AIRPORT* NOT AVBL
KAMUELA*       MOSUNNY   63  61  94 E7        30.09F
HAKALAU*         N/A     52  47  83 S2          N/A
KALOKO-HONOKO* NOT AVBL
PALI 2*          N/A     64  64 100 E3          N/A
KEALAKOMO*       N/A     73  70  88 NW2         N/A
KAUPULEHU*     NOT AVBL
KAPAPALA*      NOT AVBL
LOWER KAHUKU*  NOT AVBL
PUHE CS*       NOT AVBL
PUHO CS*       NOT AVBL
PTA KEAMUKU*     N/A     61  55  82 CALM        N/A
WAIKOLOA*      NOT AVBL
$$

HIZ027>028-101100-
BIG ISLAND OF HAWAII INTERIOR AND SUMMMITS-

CITY           SKY/WX    TMP DP  RH WIND       PRES   REMARKS
BRADSHAW FIELD CLOUDY    55  52  88 CALM      30.30F
MK VISITOR CEN   N/A     48  37  66 NE3         N/A
MAUNA KEA*       N/A     32  30  93 SW22        N/A  WCI  19
MAUNA LOA*     NOT AVBL
MAUNA LOA 1*   NOT AVBL
PTA KIPUKA*      N/A     64  61  88 S3G9        N/A
PTA RANGE 17*    N/A     55  50  82 E5G17       N/A
PTA WEST*        N/A     59  55  88 NW6G20      N/A
NENE CABIN*    NOT AVBL
AHUMOA*        NOT AVBL
PTA PORTABLE*  NOT AVBL
PUU MALI*        N/A     55  46  71 S3          N/A
$$

HIC003-101100-
NORTHWEST ISLANDS-

CITY           SKY/WX    TMP DP  RH WIND       PRES   REMARKS
MIDWAY ISLAND  CLEAR     70  64  83 CALM      30.05F
MIDWAY NOS*    NOT AVBL
FRENCH FRIGATE NOT AVBL
$$

PHZ110>124-180-101100-
BUOY REPORTS

STATION/POSITION TIME  TEMP    WIND        PRES    WAVE   SWELL
                       AIR SEA DIR/SP/G            HT/PER HT/DIR
                 (UTC) (F)     (DEG/KT/KT) (MB)    (FT/S) (FT/D)
BUOY 51001       0950   75 78  300/  6/  8 1013.5F   9/12  10/ 20
BUOY 51101       0950   76 78  270/  4/  6 1014.5F   7/11   7/ 20
BUOY 51100       NOT AVBL
BUOY 51002       0950   78 78  120/ 12/ 16 1013.8F   5/ 8   3/110
BUOY 51003       0950   77 79   50/  4/  6 1014.2F   5/11   5/330
BUOY 51004       0950   76 79  130/ 14/ 17 1015.6F   6/ 8   5/110
BARBERS PT BUOY  NOT AVBL
WAIMEA BAY BUOY  NOT AVBL
KAILUA BAY BUOY  0934      78                N/A     4/ 8   2
LANAI BUOY       0945      78                N/A     2/11   2/290
BARBERS PT 2     0939      78                N/A     3/12   2/270
PAUWELA MAUI     0939      77                N/A     3/11   2/320
HILO             0942      78                N/A     4/ 8   2/ 10
KANEOHE BAY BUOY 0936      77                N/A     3/10   2/ 10
HANALEI KAUAI    0952      77                N/A     6/10   3/340
KAHULUI HARBOR   0948   73 78  190/  3/  3 1015.0F
HONOLULU HARBOR  0948   75 78   50/  1/  1 1015.6F
KILO NALU        NOT AVBL
HILO HARBOR      0948   73 76  210/  4/  5 1015.7S
MOKUOLOE         0936   74     160/  1/  2   N/A
NAWILIWILI       0948   71 78  300/  2/  3 1014.9F
WHOTS BUOY       NOT AVBL
BUOY 51028       NOT AVBL
$$

......................KEY........................................
  SKY/WX - SKY CONDITIONS/PRESENT WEATHER
  TMP    - TEMPERATURE IN FAHRENHEIT
  DWPT   - DEWPOINT IN FAHRENHEIT
  RH     - RELATIVE HUMIDITY IN PERCENT
  WIND   - DIRECTION AND SPEED /MPH FOR ISLANDS...KTS FOR BUOYS/
  PRES   - MEAN SEA LEVEL PRESSURE IN INCHES OF HG
  VSB    - VISIBILITY IN MILES
  HX     - HEAT INDEX
  WCI    - WIND CHILL INDEX
  VRB    - VARIABLE WIND DIRECTION
  N/A    - NOT AVAILABLE




USA.gov is the U.S. government's official web portal to all federal, state and local government web resources and services.